Theta_e
306 306 305 305 306 306 306 306 306 306 306 305 305 304 305 306 307 306 306 306 306 305 305 305 305 305 306 306 307 307 307 307 305 308 309 308 306 307 307 306 306 305 304 304 306 307 307 308 308 308 309 311 311 312 314 314 317 318 319 318 317 318 319 320 321 321 322 322 322 322 321 322 322 323 325 328 328 327 333 338 342 343 342 344 345 341 336 341
306 306 306 306 306 306 306 306 305 305 305 305 304 304 306 306 306 305 305 305 305 305 305 305 305 305 305 305 306 306 307 306 305 310 310 306 306 306 306 306 305 306 305 306 307 307 308 309 309 309 309 311 312 312 313 314 316 317 318 318 318 319 321 321 322 322 322 322 323 322 322 321 322 325 327 327 327 327 332 336 341 343 343 344 345 341 336 340
306 306 306 306 306 306 305 305 305 305 305 304 304 305 306 306 305 305 304 304 304 304 304 304 304 305 305 305 306 306 307 306 307 312 309 305 307 306 306 307 307 307 307 307 306 306 307 308 308 309 309 311 312 313 313 314 315 317 318 317 318 320 320 322 323 322 323 322 323 323 322 322 322 325 326 326 325 326 329 333 338 341 343 345 345 344 341 341
306 306 306 306 306 306 305 305 305 305 304 304 304 306 306 305 305 304 303 303 303 304 304 304 304 304 305 305 305 305 306 307 309 311 307 306 308 307 307 307 307 308 307 307 307 306 306 307 308 308 310 311 312 313 313 314 315 316 317 317 319 320 320 321 323 323 323 322 321 322 322 322 322 322 324 325 323 326 328 330 334 335 341 346 344 343 343 342
306 306 306 306 306 305 305 305 305 304 304 304 305 306 305 305 304 303 303 303 303 304 304 304 304 304 304 304 305 305 306 308 310 309 307 307 308 307 306 305 306 306 306 307 307 306 306 307 308 308 309 311 311 312 313 314 314 315 316 318 319 319 320 320 322 322 323 322 321 322 321 321 322 322 322 324 324 325 328 328 329 330 339 344 341 340 342 340
306 306 306 306 306 305 305 305 304 304 304 305 306 306 305 304 304 303 303 304 304 304 304 304 303 303 304 304 305 305 307 309 309 307 308 308 308 307 306 304 304 305 306 306 306 306 307 308 308 309 310 310 311 311 312 313 314 314 315 317 318 319 319 320 321 321 322 321 322 322 321 321 322 322 321 324 325 324 326 326 326 328 338 343 340 339 339 338
305 305 305 305 305 304 304 304 304 304 304 305 306 305 304 304 304 304 303 304 304 305 305 304 304 303 303 304 304 305 307 308 307 307 308 308 308 308 306 304 304 305 306 306 306 306 307 307 308 309 309 309 310 311 312 313 314 314 314 316 317 317 318 318 319 320 321 321 322 322 321 321 321 321 321 324 324 323 324 325 328 327 335 344 343 339 336 334
304 305 304 304 304 304 304 304 304 304 305 306 306 305 304 304 304 304 304 304 304 305 305 304 304 304 303 304 305 308 308 306 305 306 306 306 307 307 306 305 304 305 306 306 306 306 306 307 308 308 308 309 310 310 311 312 312 312 313 315 316 316 316 317 318 318 319 320 320 321 321 322 322 322 322 323 323 323 323 324 328 327 332 342 344 339 335 334
305 305 304 304 303 303 304 304 304 304 305 306 306 305 304 304 304 304 303 304 304 305 305 305 304 304 304 304 306 309 307 305 305 305 305 306 306 306 306 306 305 305 306 306 306 305 306 307 307 307 307 309 309 309 310 310 311 312 312 314 315 315 315 316 316 317 318 319 319 319 320 321 322 322 322 322 323 323 324 325 325 330 336 341 343 337 331 334
305 304 304 303 303 303 304 304 304 304 305 306 306 305 305 305 305 304 304 304 305 305 305 305 304 305 304 305 308 310 306 304 305 305 305 306 306 306 307 306 306 306 306 306 306 305 306 305 306 306 306 308 308 308 309 310 310 311 312 313 313 314 315 315 316 316 317 317 318 318 318 320 321 321 321 321 323 323 324 326 324 329 335 336 340 338 329 330
305 303 303 302 302 303 303 304 304 304 306 307 306 305 305 305 305 304 304 304 305 305 305 304 305 305 305 307 311 309 305 305 306 305 305 305 306 307 307 307 306 306 306 306 306 306 305 305 305 305 306 307 307 308 309 309 309 310 311 311 312 312 313 314 315 316 316 317 317 318 318 319 320 319 321 321 322 323 323 326 325 326 330 331 337 340 332 326
304 303 302 301 301 302 303 304 304 304 306 307 306 306 306 305 305 304 304 305 305 305 305 305 305 305 307 309 310 307 305 306 306 305 306 305 305 306 307 307 306 306 306 306 306 306 305 305 305 305 306 306 307 307 308 308 308 309 310 309 310 311 312 313 314 315 315 316 317 318 317 317 319 318 320 321 321 323 322 324 324 325 326 329 333 335 335 328
304 303 302 301 301 302 303 304 304 305 307 307 306 306 306 305 305 304 305 305 305 305 305 305 305 305 309 311 307 306 306 305 305 306 306 306 306 306 306 306 307 306 306 307 307 306 306 306 305 306 306 305 306 307 307 308 308 308 309 309 309 310 311 312 313 314 315 316 317 317 315 316 318 319 320 321 321 322 322 323 322 325 325 327 332 331 336 336
303 303 302 301 302 302 303 304 304 306 307 307 307 307 306 305 305 304 305 305 305 306 305 305 305 305 310 310 305 306 306 305 306 306 306 306 306 307 306 305 305 305 306 306 306 306 306 306 305 306 305 305 306 306 306 307 308 308 309 309 309 309 310 312 313 313 314 315 317 316 314 315 318 319 320 320 321 321 323 324 321 325 325 328 333 328 333 340
303 302 301 301 302 302 303 303 304 306 308 307 307 307 306 305 305 305 305 305 305 305 305 305 305 307 311 308 305 306 305 306 306 306 306 305 306 307 307 306 305 304 305 306 306 305 305 305 305 306 307 306 305 305 305 306 307 307 308 308 309 309 310 312 313 313 313 314 316 315 313 315 317 319 320 320 321 322 323 324 322 324 326 328 332 328 331 342
303 302 301 301 302 303 303 303 305 307 308 307 307 307 306 305 305 305 305 305 306 306 305 306 305 307 311 307 306 306 306 307 306 306 306 305 306 306 306 307 306 305 304 305 305 305 305 305 306 306 307 306 306 306 306 306 306 307 307 308 308 310 310 311 312 313 313 313 314 315 314 315 317 318 320 320 320 322 323 323 322 323 326 328 332 331 329 338
302 301 301 301 302 302 303 304 307 308 308 307 307 307 306 305 305 305 305 305 306 305 305 306 305 307 309 307 306 307 307 307 306 306 306 305 305 305 306 307 306 306 305 305 305 305 305 305 306 306 306 307 307 306 306 306 306 307 307 307 308 309 311 311 312 313 313 312 313 314 314 315 316 318 319 320 320 322 323 322 322 322 324 327 330 331 329 334
302 301 300 301 302 303 304 306 308 308 308 307 307 307 306 305 305 305 305 305 306 307 307 306 307 309 309 307 307 307 307 307 306 306 306 306 305 305 306 306 306 305 305 305 305 305 306 306 306 306 306 307 306 306 306 306 307 307 308 308 308 308 310 310 311 313 312 312 312 312 314 314 315 317 318 320 320 321 322 322 322 321 322 326 326 327 328 331
302 301 300 301 302 303 306 307 308 307 307 307 307 306 306 306 306 306 305 306 307 309 309 307 307 309 308 307 307 308 308 309 307 306 306 306 306 306 306 306 306 305 306 306 306 306 306 307 307 306 307 307 307 307 307 307 307 307 307 308 308 308 308 309 310 312 313 312 312 312 313 314 314 316 318 319 320 320 322 321 322 322 322 325 324 324 327 329
302 301 300 301 303 305 307 307 307 307 307 307 306 307 309 309 310 309 307 307 308 307 308 307 307 307 307 307 307 308 309 309 308 307 307 306 306 307 306 306 306 306 306 306 306 306 306 306 306 307 307 307 307 307 306 307 306 306 306 306 307 307 308 309 309 311 312 311 312 312 312 313 314 315 317 319 320 321 322 322 322 322 322 324 324 324 327 329
302 301 300 301 305 307 307 307 307 307 307 307 306 308 309 309 311 310 308 308 307 306 306 307 306 306 307 307 307 307 308 309 309 307 307 307 306 306 307 306 306 306 307 306 306 306 305 305 306 306 306 306 306 306 306 306 306 306 306 305 306 306 307 308 309 310 311 310 311 312 313 313 314 314 316 317 318 320 321 322 322 321 323 323 323 324 326 329
302 300 300 303 306 307 307 307 307 307 307 307 307 308 308 306 308 307 307 310 309 306 305 306 306 306 307 306 306 307 308 310 310 309 308 307 306 306 307 306 306 306 307 306 306 306 306 306 306 306 306 305 305 306 306 306 306 306 306 306 306 307 307 307 308 308 309 309 309 311 312 313 314 315 316 317 317 319 320 321 322 321 323 323 322 323 325 327
302 300 301 305 307 306 307 307 307 307 307 306 307 307 307 306 306 305 306 310 310 307 306 306 307 307 308 307 307 307 308 310 310 309 308 307 307 307 306 306 306 306 306 306 306 306 306 306 306 306 305 305 305 305 305 305 306 306 306 306 306 307 307 307 308 307 307 308 308 310 311 312 314 315 315 317 318 318 319 319 321 322 323 324 323 324 325 326
302 300 302 306 307 306 307 307 307 307 306 307 307 306 305 306 306 306 307 310 310 308 307 307 307 307 308 308 307 307 309 311 310 309 307 307 308 307 306 307 306 306 306 306 306 306 306 306 306 305 305 304 304 304 305 305 306 306 306 306 307 307 307 307 308 307 307 307 307 308 309 310 311 313 314 315 316 316 317 318 319 320 321 322 323 324 324 325
303 300 303 307 307 307 307 307 307 307 307 308 307 306 305 305 305 305 308 310 310 309 308 307 307 307 308 307 307 308 310 311 309 308 307 307 307 307 307 307 306 306 307 306 306 306 306 307 307 305 305 304 304 304 304 305 305 306 307 307 307 307 307 307 307 307 307 307 307 307 306 308 309 311 312 314 314 315 316 317 318 318 319 320 321 324 324 325
303 301 303 307 307 307 308 309 308 307 308 308 306 306 306 306 305 305 308 311 311 309 309 309 308 308 308 309 309 310 311 310 308 307 307 307 307 307 307 307 307 306 306 306 306 306 306 307 306 305 305 305 305 305 304 305 305 305 306 307 306 306 306 306 306 306 306 307 308 307 306 307 308 309 311 313 313 315 316 316 317 317 318 319 319 322 325 326
303 302 304 307 308 307 309 309 308 308 310 308 306 306 306 306 305 305 309 312 310 309 309 309 309 309 309 310 311 311 311 310 309 307 306 306 307 307 306 307 307 307 307 307 306 307 307 306 306 305 305 305 305 305 305 305 304 304 306 306 306 306 306 306 306 306 307 307 308 308 307 307 308 309 312 313 313 314 315 315 316 317 317 319 319 319 322 325
303 302 304 307 308 308 308 308 309 309 309 307 307 306 306 306 305 307 311 311 311 310 309 309 309 309 309 311 311 311 310 310 309 308 307 307 307 307 307 307 307 307 308 307 306 308 307 306 306 305 305 305 305 305 305 305 304 304 305 305 305 305 305 306 306 306 307 307 308 308 308 307 307 309 311 313 313 313 315 315 316 317 317 317 319 319 320 322
303 303 305 307 308 308 308 308 308 309 308 307 307 307 306 306 306 309 311 311 311 309 309 310 310 310 311 312 312 312 311 310 310 309 308 308 308 308 307 308 308 307 308 308 307 308 307 307 307 306 305 305 305 306 305 305 304 305 305 304 305 305 305 305 305 306 307 307 308 308 308 307 307 308 309 311 312 313 314 315 316 317 318 317 317 319 320 321
303 304 306 308 309 308 309 309 308 308 308 308 307 307 306 305 308 311 310 310 311 310 311 311 310 311 311 312 312 312 312 311 310 310 310 310 309 308 308 308 308 307 308 308 308 308 308 308 307 306 306 306 306 306 306 305 305 305 305 304 304 304 305 305 305 306 306 307 307 308 308 308 307 308 309 310 311 312 313 314 315 316 317 318 317 318 319 321
303 306 307 308 309 309 309 310 309 308 308 308 307 307 306 308 311 310 309 310 311 311 311 310 310 311 311 311 312 311 311 311 311 310 310 310 310 310 310 309 308 308 309 309 308 308 309 308 307 306 307 307 306 305 306 306 306 305 305 304 305 305 305 305 306 306 306 306 307 308 308 308 308 308 309 310 311 311 312 312 314 315 316 317 317 318 320 319
304 306 307 308 309 309 309 309 308 307 308 308 307 307 309 311 310 310 310 310 311 311 311 310 310 310 310 311 311 310 310 311 311 310 309 310 310 310 310 309 309 309 309 309 309 309 308 308 308 308 308 307 306 305 305 306 305 305 305 305 304 304 305 305 305 305 305 306 307 307 308 307 308 309 309 310 310 311 312 312 314 316 316 317 317 317 318 318
304 306 308 308 309 309 308 307 307 307 308 308 307 308 310 310 310 311 310 310 311 311 310 310 310 310 310 311 310 309 310 310 310 310 310 310 310 310 310 309 309 309 309 309 309 309 309 309 308 307 307 307 306 305 305 305 305 305 304 305 304 304 305 305 305 305 305 306 307 307 308 308 308 309 310 310 310 311 312 312 312 314 315 316 317 317 318 318
304 305 307 309 309 308 307 307 307 307 307 308 309 310 310 309 310 311 310 310 310 310 310 310 310 310 311 311 310 309 309 310 310 310 310 310 310 310 310 309 309 308 309 309 309 309 309 309 308 306 306 307 306 306 306 305 306 306 305 305 305 304 305 305 305 305 305 306 307 307 307 307 307 309 311 310 310 311 311 311 311 311 312 313 315 316 316 317
304 306 308 308 306 306 306 307 307 307 307 309 311 311 310 310 310 310 310 310 310 310 310 310 310 311 311 310 310 309 309 309 309 309 310 310 310 310 309 309 309 308 309 310 309 309 308 309 308 307 306 305 305 306 306 306 305 306 307 305 305 305 304 305 305 306 306 307 307 307 308 308 308 310 311 311 311 311 311 311 311 311 311 310 312 314 315 316
306 308 308 305 304 305 306 306 307 305 307 311 312 310 310 310 310 310 310 310 310 310 309 309 309 310 310 310 309 309 309 309 309 310 310 310 310 310 309 309 309 309 308 309 309 309 309 309 307 307 306 305 306 306 306 306 306 306 307 306 306 306 305 305 305 306 306 306 306 307 307 308 308 309 310 310 310 310 311 311 312 312 311 311 311 312 314 316
307 309 306 303 303 305 305 306 305 305 308 312 310 309 310 310 310 309 310 310 309 310 309 308 309 310 310 309 309 309 310 310 309 310 310 310 311 310 309 309 309 309 308 309 309 308 308 309 307 306 306 306 306 306 305 306 306 306 306 306 306 306 305 305 304 305 305 304 305 306 305 306 307 308 310 310 310 310 310 311 312 312 313 312 312 312 313 315
307 309 308 303 303 305 305 305 303 305 310 311 309 310 310 309 310 310 309 310 309 309 308 308 309 310 309 309 309 309 309 310 310 310 310 310 311 310 309 310 309 309 308 308 308 307 306 307 309 306 306 306 306 305 305 305 306 306 306 306 306 306 306 305 304 304 304 304 305 305 305 305 306 307 309 311 311 311 310 310 311 312 312 313 313 313 313 315
307 311 310 304 303 305 304 303 303 307 312 308 307 309 309 308 309 309 308 308 309 309 308 308 308 309 309 309 309 309 309 310 309 310 310 310 310 310 309 310 309 309 309 308 307 307 306 307 309 306 304 305 306 305 304 304 305 305 306 306 306 306 306 306 304 304 304 304 305 305 305 305 306 307 308 309 311 311 312 311 311 312 312 313 313 313 314 315
307 313 311 304 303 304 304 304 307 309 309 306 306 308 307 308 309 309 308 308 308 308 308 308 308 308 309 309 309 309 309 309 309 309 310 310 310 311 310 309 309 309 309 308 307 307 307 307 308 307 305 306 306 305 305 305 304 304 305 305 306 306 307 306 306 304 304 304 305 305 306 306 307 309 308 309 310 311 311 312 312 312 313 313 313 313 314 314
308 314 311 305 304 304 305 307 308 308 307 307 307 307 306 307 308 308 308 307 308 308 308 308 308 308 308 308 309 309 308 308 309 309 310 309 310 311 310 309 309 309 309 308 307 307 307 307 308 308 308 308 308 306 306 305 305 305 305 305 305 306 306 306 306 305 304 304 305 306 306 307 308 310 310 310 311 311 312 313 314 314 314 314 314 315 315 317
310 313 309 304 303 304 307 310 307 307 307 306 305 306 306 306 307 307 307 307 308 308 308 309 308 308 308 308 308 308 308 308 308 309 309 309 310 310 310 310 309 309 309 308 308 308 307 307 307 308 308 308 308 307 307 306 305 305 305 305 305 306 306 306 306 306 305 305 305 305 306 307 309 310 311 312 312 313 314 315 316 316 316 316 317 317 318 320
310 311 307 304 304 305 308 309 307 307 307 305 306 306 305 306 306 306 306 306 307 307 308 308 308 308 308 308 308 308 307 307 307 308 309 309 309 310 311 310 309 310 309 309 309 308 307 307 308 309 309 308 308 308 307 307 306 306 306 306 306 305 306 307 307 307 307 307 306 305 305 307 308 310 310 312 313 314 315 316 317 317 317 318 319 319 319 320
307 308 307 304 304 306 307 307 305 306 306 307 307 307 306 306 306 305 305 305 306 306 307 308 308 307 308 308 308 307 307 308 308 308 308 309 309 310 311 310 310 310 310 310 309 308 308 308 308 309 310 310 309 307 307 307 307 306 306 306 306 306 306 307 307 307 308 308 308 306 306 307 309 310 311 312 313 313 314 316 316 317 317 318 319 319 320 321
308 309 308 305 304 305 305 305 305 305 305 306 307 307 307 307 305 304 304 305 306 306 307 307 307 307 307 307 307 307 307 308 308 308 308 309 309 310 311 311 310 310 310 311 310 308 309 309 308 309 311 311 310 308 307 307 307 306 306 306 306 306 306 307 307 307 307 307 307 306 306 307 308 309 310 312 312 312 314 315 315 316 317 318 321 322 322 322
310 310 309 307 306 305 304 304 305 305 304 305 305 306 306 306 306 304 303 304 306 306 306 306 306 307 307 307 307 307 308 308 308 308 308 309 309 310 311 310 310 311 312 312 311 308 308 309 309 309 311 311 310 310 309 308 308 307 306 306 306 306 306 307 307 306 306 307 307 307 307 308 309 309 310 311 311 311 313 314 314 316 317 318 320 322 323 323
308 308 307 307 307 307 306 305 305 305 305 304 305 305 305 305 306 305 304 305 305 305 305 306 307 307 307 306 306 306 307 308 308 309 309 309 309 309 310 310 311 313 313 313 311 309 308 309 310 309 309 309 310 310 310 309 309 308 307 307 307 306 306 307 307 307 307 307 307 308 309 309 309 310 310 311 311 311 312 313 315 315 316 317 319 321 322 322
307 307 305 304 306 307 306 305 305 306 306 305 305 305 305 305 305 305 304 304 305 305 305 305 306 307 306 306 305 306 307 308 309 309 309 309 308 308 309 310 312 313 312 312 311 309 309 311 311 310 309 309 309 309 310 310 310 309 309 308 308 307 307 307 307 308 308 308 308 309 310 310 310 310 311 312 312 312 313 314 315 315 316 318 320 320 321 322
307 307 305 304 305 306 305 304 305 306 306 305 305 306 305 305 305 304 304 304 305 306 306 305 306 306 306 306 305 306 308 308 308 309 308 308 308 307 309 311 312 312 311 311 311 310 310 311 311 311 310 310 310 309 310 310 311 310 310 309 308 308 308 307 308 308 308 309 309 309 310 310 310 310 311 312 313 313 314 315 316 315 317 319 320 320 320 322
306 306 305 305 306 307 305 305 306 306 307 306 306 306 305 305 305 304 304 304 305 306 306 305 306 306 306 306 306 307 307 307 307 308 307 308 307 307 309 310 311 311 311 310 311 311 311 312 312 312 312 312 312 311 311 310 311 311 311 310 309 308 308 308 308 309 309 309 309 310 310 311 311 311 312 313 313 312 314 316 317 317 318 320 320 320 320 322
304 304 304 305 308 307 306 307 306 306 307 307 306 306 305 305 304 303 304 304 304 305 305 305 305 305 305 306 306 307 307 307 307 307 307 307 307 307 307 308 309 310 309 310 311 311 311 312 312 312 313 314 313 312 312 312 312 312 312 312 311 310 309 309 309 309 310 310 310 310 310 311 311 312 313 314 314 314 315 318 318 318 320 321 320 320 320 322
303 303 302 304 307 307 307 308 307 307 308 307 305 306 305 305 305 303 304 304 304 305 304 304 305 304 304 306 307 307 307 306 306 307 307 307 307 307 307 308 308 308 308 309 310 310 311 312 313 313 314 314 314 313 312 313 313 313 313 313 312 311 311 311 310 310 310 310 310 310 310 311 312 313 314 315 315 315 317 319 319 319 322 323 322 321 322 322
Wind_Speed
11 12 13 14 14 15 16 16 16 17 18 18 19 19 20 19 19 19 20 20 19 18 18 17 15 13 13 14 14 13 11 8 5 3 1 4 5 5 5 5 4 5 5 5 6 5 5 7 9 11 12 11 14 17 17 18 20 16 12 12 14 15 17 17 17 16 14 16 13 14 15 13 12 17 17 13 16 17 13 12 8 8 6 7 10 15 20 22
11 12 13 14 14 15 16 16 16 17 18 19 20 21 20 19 20 21 21 20 19 18 17 16 15 12 12 12 13 12 9 6 2 2 2 3 1 1 1 1 1 2 3 4 4 4 4 5 6 9 13 13 14 17 17 18 21 17 11 12 16 16 19 21 22 20 17 19 16 15 15 15 13 15 17 14 17 18 15 15 12 11 10 10 12 16 21 23
10 11 13 14 14 15 15 15 15 16 18 19 20 20 18 19 20 20 21 20 19 18 16 15 13 12 12 11 11 10 6 3 1 2 2 4 4 4 4 2 2 3 3 4 5 3 4 5 5 8 13 15 15 16 17 17 19 20 16 12 16 19 22 27 29 28 23 20 17 14 16 18 18 17 16 14 18 18 16 15 12 11 13 14 14 17 22 25
10 11 13 14 15 15 14 14 15 16 18 19 19 17 16 18 19 18 18 18 18 17 15 14 13 12 12 11 10 8 5 3 3 5 4 4 4 5 4 2 2 3 3 4 6 5 4 4 5 7 11 14 16 16 16 18 17 18 18 15 18 21 21 27 32 33 29 23 20 17 15 18 20 21 18 17 18 15 18 19 17 14 13 17 19 21 24 25
12 12 13 14 14 14 15 15 16 18 19 19 17 16 17 18 19 18 16 15 15 15 15 14 13 12 12 10 9 7 5 4 4 5 5 5 4 3 1 2 3 3 3 5 5 5 4 3 4 7 10 12 15 15 15 21 19 14 20 23 24 23 19 24 32 32 29 24 23 21 17 18 19 23 24 22 18 14 17 21 20 18 17 20 23 25 25 23
12 12 12 13 14 14 14 16 17 18 20 19 18 18 20 20 21 19 17 15 13 12 12 13 13 12 11 10 8 6 4 2 4 3 6 5 4 2 4 5 4 4 4 4 4 5 4 3 5 7 9 10 12 13 15 21 20 13 17 25 28 27 20 20 26 26 26 25 23 22 21 21 20 23 26 26 24 20 19 21 19 17 17 20 23 25 24 23
13 12 11 12 13 12 14 16 17 20 21 19 20 21 22 22 22 20 17 15 12 11 11 12 12 11 9 8 6 3 1 2 1 5 8 8 8 8 10 9 6 4 3 4 4 5 4 5 6 6 7 8 10 12 14 15 17 14 13 19 22 21 17 17 18 17 23 26 25 24 23 23 23 24 25 26 27 26 23 23 21 17 16 19 23 24 23 22
15 13 12 11 12 12 14 16 18 21 21 20 21 22 22 22 23 21 18 15 13 12 13 14 13 9 6 5 5 1 2 2 2 6 7 9 10 11 11 8 6 3 2 3 4 5 5 6 6 5 7 7 5 8 10 9 15 16 16 19 16 11 13 17 16 13 18 22 25 26 24 26 29 27 26 27 28 28 29 25 23 23 22 23 25 24 21 22
16 14 12 10 11 12 14 16 19 21 21 19 20 21 21 22 23 21 18 15 13 13 15 15 14 9 5 5 3 2 2 1 3 4 5 6 7 9 7 4 4 2 1 2 3 4 4 4 3 4 7 7 5 7 9 8 10 11 15 18 14 11 12 14 16 15 16 17 21 23 24 28 30 26 23 30 31 27 30 27 26 25 26 26 25 23 22 23
17 14 12 10 10 12 14 16 18 20 19 17 19 20 20 22 22 19 17 15 13 14 15 15 14 10 8 6 2 1 2 3 3 6 7 6 7 6 4 4 4 2 2 2 1 2 2 2 3 4 7 8 7 8 9 9 7 7 11 14 14 14 13 12 13 15 18 18 20 21 22 26 28 22 17 28 34 29 30 30 31 27 26 28 26 23 25 25
17 13 11 10 10 12 13 14 18 20 17 16 18 18 20 21 20 17 15 14 14 14 15 15 13 10 11 8 4 4 5 4 5 7 8 8 8 5 4 7 5 3 3 2 1 1 1 2 4 5 5 5 6 9 10 10 11 12 12 13 15 17 16 16 14 14 15 15 21 22 22 25 25 21 20 28 32 31 33 31 32 32 27 28 25 23 24 25
16 13 11 10 10 11 12 14 17 18 15 15 17 18 20 20 17 14 12 12 13 14 14 15 12 11 12 9 6 5 6 7 6 8 8 8 8 6 6 8 7 6 5 4 4 2 1 1 3 5 5 5 6 7 6 6 10 13 12 13 14 16 16 18 17 17 16 14 22 22 18 22 22 24 31 32 28 30 33 31 33 33 29 28 25 25 26 27
17 14 11 11 10 11 12 14 17 17 14 14 16 18 19 18 14 11 10 11 12 13 15 16 12 12 10 6 6 5 4 6 6 7 8 8 8 7 6 6 8 9 9 7 5 3 3 2 3 6 6 7 8 6 7 7 9 11 12 11 11 12 14 17 18 19 19 16 19 18 13 18 22 29 36 32 27 29 29 31 34 31 29 29 25 26 28 28
17 14 12 11 10 10 12 15 17 16 13 14 16 18 18 15 10 8 9 11 11 12 16 16 11 11 8 4 6 5 3 5 7 8 7 6 6 5 5 6 7 8 11 10 6 5 4 4 5 7 7 7 9 9 10 10 8 9 9 9 9 9 11 15 18 20 19 16 18 16 13 17 22 31 37 32 28 28 27 30 33 30 28 28 24 27 30 30
17 14 12 11 11 11 13 15 17 15 14 15 16 18 17 11 6 7 9 10 11 10 14 16 10 7 4 3 8 9 6 6 6 8 6 4 5 3 4 6 6 6 7 10 8 6 5 5 7 9 7 5 7 9 9 8 8 8 8 8 9 9 10 13 16 18 18 17 20 18 14 17 21 27 34 33 30 29 28 29 31 30 28 28 26 28 32 32
17 14 12 11 11 12 14 16 17 15 15 15 16 17 14 7 4 6 9 10 9 8 11 14 8 4 3 5 9 11 10 8 6 7 6 4 4 4 4 5 3 5 3 6 8 7 5 7 8 9 8 6 7 7 7 8 8 8 8 9 9 9 9 10 10 15 19 18 21 22 16 16 18 22 29 32 33 32 30 30 30 30 29 29 29 29 33 31
16 14 12 11 12 13 15 16 16 16 16 16 16 14 10 5 3 6 9 9 8 6 8 12 7 2 3 8 9 11 13 10 7 6 5 3 3 2 3 4 3 3 1 3 5 6 6 7 7 7 8 8 6 5 6 8 8 8 9 9 10 9 7 7 7 11 18 19 20 23 21 19 16 19 25 30 33 33 32 33 32 32 30 30 30 29 34 32
16 13 12 11 12 14 15 16 16 17 17 17 15 12 7 3 2 6 9 8 8 4 3 10 8 2 3 9 9 10 13 12 9 6 4 3 3 2 3 4 4 4 3 4 5 5 6 7 6 5 6 7 7 7 8 9 8 7 7 7 9 10 9 10 6 5 13 19 21 22 22 24 21 18 20 26 33 34 32 33 33 34 32 30 31 31 34 33
15 12 12 12 13 14 15 16 16 18 18 17 16 11 7 5 1 4 9 8 7 4 1 7 8 2 2 8 9 10 13 13 9 4 3 3 4 4 4 5 5 5 6 4 4 4 4 5 6 6 6 7 7 7 9 10 8 7 7 6 7 8 10 11 9 3 5 11 17 21 21 22 23 21 18 20 25 28 30 32 32 32 31 30 32 33 33 33
15 12 12 12 13 14 14 16 16 19 19 18 18 9 7 9 2 2 8 6 3 3 2 4 5 4 5 8 8 12 15 12 6 1 3 4 4 6 6 5 5 6 5 2 1 1 3 5 6 6 5 5 5 7 10 11 8 8 9 9 9 10 8 8 9 6 4 7 11 17 20 20 21 23 23 22 17 17 24 29 30 31 31 30 32 32 31 31
15 12 12 12 13 13 14 15 15 19 18 19 20 11 8 10 3 3 10 6 2 3 3 4 5 6 6 7 8 12 14 9 4 1 4 4 5 7 4 3 6 5 1 2 3 2 4 7 5 4 5 5 7 8 9 10 10 10 10 10 11 10 11 10 10 9 7 8 10 14 17 18 19 19 22 25 21 19 22 23 25 29 29 30 32 32 31 29
14 11 12 12 12 14 14 14 15 18 17 17 18 13 9 8 4 5 7 5 6 5 4 5 7 7 7 8 7 10 11 9 6 4 4 4 5 5 1 3 6 3 0 3 6 4 6 7 3 2 4 6 8 8 9 11 12 11 9 10 10 9 10 11 11 12 9 7 10 13 14 13 15 16 17 19 19 20 22 20 21 24 26 29 31 32 32 30
14 12 11 10 12 14 13 12 15 16 15 15 14 11 8 6 5 5 4 6 7 5 4 5 6 7 6 6 7 10 9 9 9 6 3 3 6 4 4 6 5 5 5 5 5 5 5 4 3 2 2 5 7 8 9 10 10 10 9 9 9 10 10 9 10 12 11 10 11 13 12 11 12 14 15 17 18 19 20 19 17 18 20 24 28 30 32 32
14 11 9 9 12 14 12 12 15 15 13 13 12 11 9 7 6 5 4 6 4 3 4 3 4 5 5 7 9 10 9 9 9 5 3 4 6 4 5 6 5 6 6 5 7 8 9 7 1 2 5 7 8 9 9 9 8 10 12 10 10 10 9 8 6 5 8 11 13 12 11 10 13 15 15 17 20 21 22 22 20 20 20 20 23 28 31 34
15 11 8 9 12 14 12 12 14 14 11 9 9 11 10 8 7 4 4 5 3 1 3 1 2 2 6 9 8 11 12 9 6 6 5 6 6 5 4 4 5 6 4 5 8 8 10 8 5 7 9 10 11 10 9 9 7 9 12 13 13 12 10 9 8 7 7 9 12 13 11 9 13 19 18 16 17 20 23 24 25 28 26 21 22 24 29 33
15 10 6 7 11 13 11 9 12 13 9 6 9 11 9 9 8 5 3 4 3 2 1 2 2 3 8 9 11 16 12 4 4 6 5 5 6 6 6 3 5 6 6 5 7 7 8 7 6 9 11 12 12 11 10 9 8 8 8 9 11 12 12 11 11 9 8 8 9 12 12 9 10 16 18 18 19 20 22 23 27 33 31 26 24 24 25 29
15 10 6 6 10 13 10 8 11 12 8 7 11 11 9 10 8 2 3 4 3 3 3 4 4 6 10 9 13 14 7 6 7 2 1 1 4 5 6 5 4 6 5 4 6 3 4 7 7 8 10 11 10 10 10 10 9 7 1 2 6 8 11 12 11 10 8 9 8 8 11 10 9 12 13 16 20 21 22 22 25 31 35 32 28 25 24 26
13 10 6 5 10 12 11 11 11 9 8 10 12 12 11 8 4 1 4 1 3 3 2 3 4 7 9 9 10 7 5 10 7 2 2 3 5 5 8 7 6 9 7 6 9 3 2 6 8 9 10 9 9 9 7 9 11 6 2 2 7 7 9 9 9 9 9 9 9 10 12 10 9 11 10 11 16 18 21 23 23 27 35 37 32 27 24 25
12 9 5 4 8 11 11 13 12 9 11 13 12 12 10 4 0 3 4 1 2 2 2 4 6 7 12 11 6 5 6 6 4 4 7 7 6 7 8 7 8 11 11 10 12 9 7 10 10 11 11 8 9 10 7 8 10 6 1 5 8 8 9 9 8 8 9 10 10 12 13 10 10 11 11 11 13 15 17 19 20 24 30 33 33 30 25 26
11 9 5 3 7 10 12 13 13 13 13 14 13 11 5 1 2 4 2 2 2 4 4 5 8 10 15 12 5 6 8 4 5 9 9 6 6 8 9 9 9 9 10 11 12 12 14 13 9 10 12 12 12 12 11 11 11 7 5 7 9 8 8 8 8 8 9 10 12 14 15 13 10 9 10 11 12 13 14 14 15 20 26 29 30 29 25 26
10 9 5 3 6 10 10 10 13 15 14 15 13 6 1 2 3 3 3 2 3 6 6 6 10 12 14 12 7 8 10 6 5 7 7 5 5 6 8 8 7 7 7 7 8 10 12 12 9 10 14 14 13 12 13 13 12 10 9 8 8 8 8 7 8 8 9 10 11 14 17 16 12 9 9 11 12 13 14 14 14 16 22 27 28 27 24 24
10 9 6 4 6 9 10 10 13 15 14 15 11 2 3 3 2 2 4 3 3 5 8 8 11 12 12 12 9 10 10 5 5 8 8 8 6 6 8 6 4 7 6 4 6 7 9 10 9 11 13 13 12 10 10 11 11 10 9 9 9 8 7 8 9 9 10 10 11 12 14 14 12 10 12 14 11 10 11 12 12 12 16 21 23 24 22 21
10 8 7 5 7 10 11 11 13 14 14 13 7 3 5 4 3 3 5 5 3 6 9 10 12 13 12 10 8 11 10 5 6 11 11 9 9 8 7 7 5 7 6 6 9 8 7 7 6 7 7 10 12 10 8 8 10 11 10 10 9 8 8 9 9 9 10 11 13 13 10 8 9 9 13 18 16 13 14 14 15 15 15 16 17 17 16 15
9 8 7 6 9 11 12 12 12 13 14 11 5 5 4 4 3 2 5 5 6 8 10 12 14 13 8 6 8 10 7 6 9 13 11 9 8 7 6 2 3 5 6 6 6 6 7 5 3 4 1 4 10 12 10 9 8 10 11 10 11 10 9 8 8 9 10 11 13 14 11 7 7 5 6 11 16 19 21 22 22 22 21 20 18 18 16 14
8 6 7 9 12 13 13 13 11 12 13 8 6 4 4 4 3 3 5 6 7 9 12 14 12 10 6 5 8 7 4 4 11 12 9 9 8 7 6 3 2 4 4 4 3 3 8 7 1 4 1 2 7 9 10 11 8 8 9 10 11 11 10 9 9 8 7 7 9 10 9 8 8 7 5 6 10 13 16 19 21 23 25 24 23 22 21 18
6 5 8 13 14 13 14 13 11 12 11 7 5 3 4 3 3 4 5 6 7 9 13 12 6 5 6 6 8 8 4 4 11 9 7 9 9 7 5 5 5 4 5 5 4 4 7 5 1 3 6 7 10 8 8 10 7 5 8 10 10 10 10 9 10 9 6 7 7 6 8 9 8 11 12 14 14 13 13 13 15 18 21 23 24 23 23 22
4 4 9 16 13 13 15 11 11 10 7 7 3 3 3 2 4 4 5 7 9 8 9 8 4 3 7 7 8 11 9 8 9 8 8 10 7 4 6 7 5 5 6 6 5 4 5 7 6 7 8 6 7 9 10 11 9 6 5 7 8 7 7 7 8 8 8 9 8 9 12 11 8 7 7 11 14 16 16 14 13 15 16 18 20 22 23 23
3 2 8 16 13 13 13 10 12 9 4 5 2 2 2 3 4 5 7 9 9 7 7 6 2 2 6 8 9 12 13 10 10 9 9 7 3 3 7 8 4 3 5 6 5 2 2 8 7 4 5 4 4 8 10 10 13 12 6 4 5 6 6 7 8 6 8 8 8 11 14 11 9 8 6 6 8 11 14 15 15 15 15 16 18 19 22 23
4 2 5 14 14 12 10 9 12 6 3 3 3 2 2 3 4 5 8 9 7 6 6 4 2 3 6 9 10 12 12 10 11 10 7 3 2 4 6 5 5 5 5 3 3 1 1 6 4 3 4 4 5 7 7 6 10 12 10 6 6 6 5 7 7 7 9 9 8 11 12 10 8 9 11 11 8 8 9 11 13 14 15 16 17 17 19 21
4 2 4 14 14 12 10 10 8 4 2 3 3 3 4 4 6 7 7 8 6 5 4 4 5 6 8 9 10 10 11 11 11 9 6 5 6 7 4 3 6 8 6 3 4 2 3 5 5 2 3 3 6 6 7 6 6 8 8 8 8 6 5 5 6 8 9 9 9 9 9 8 7 7 10 12 11 11 12 11 11 12 14 16 17 17 18 19
5 1 5 15 15 11 8 7 7 4 3 3 2 3 5 6 9 9 8 7 5 5 5 6 7 7 8 9 9 9 10 11 11 9 8 6 5 4 1 1 8 10 7 5 5 4 4 4 6 6 4 7 8 7 8 8 5 6 7 7 9 8 7 6 7 8 9 9 9 9 9 8 7 5 6 9 10 10 10 10 9 9 11 12 13 14 14 15
5 2 7 15 15 12 5 1 5 4 3 4 3 3 5 7 8 9 8 6 4 4 4 6 7 7 7 7 9 10 10 10 11 9 8 8 5 3 4 6 11 12 8 7 6 5 3 2 6 8 8 11 13 12 11 9 7 7 7 7 8 8 8 8 7 7 8 10 10 10 9 9 9 8 7 8 9 8 8 7 7 7 7 7 8 8 10 11
5 3 8 14 16 13 5 1 4 4 3 5 3 3 4 6 6 9 8 5 4 3 4 5 5 6 6 7 9 11 11 10 10 9 9 11 9 6 9 12 13 13 8 5 5 5 5 2 5 8 9 11 13 11 10 10 9 8 8 9 9 9 10 9 8 7 6 9 10 8 9 10 9 9 9 8 9 10 10 9 7 7 7 6 6 5 7 8
4 3 7 13 16 13 6 3 5 4 4 5 3 2 3 4 5 8 7 6 5 4 4 5 5 6 7 9 10 12 12 8 7 9 10 10 11 10 8 12 13 10 6 5 3 4 4 3 3 6 8 6 5 4 5 8 9 8 8 10 11 12 12 11 9 8 7 10 11 9 9 9 6 6 7 8 9 11 11 11 9 8 8 7 5 4 4 6
5 3 4 10 16 15 9 5 5 4 5 7 6 6 6 4 4 6 7 7 5 4 5 6 7 8 9 10 11 12 11 7 7 10 11 10 13 12 8 10 14 12 11 12 7 5 2 3 3 4 7 6 5 3 2 3 5 7 9 12 14 15 15 11 8 8 9 11 12 11 10 10 8 9 10 10 12 13 12 12 11 10 10 8 7 6 6 5
4 3 3 5 10 12 10 6 6 4 4 6 5 6 8 7 6 5 5 5 2 3 7 8 8 8 7 10 13 11 9 8 8 10 12 12 12 12 15 19 15 10 12 11 9 8 2 4 6 7 7 7 10 10 8 7 6 7 10 13 14 15 15 12 8 9 10 10 11 12 12 13 13 13 13 13 15 15 13 12 12 12 11 10 12 12 9 7
2 2 4 4 4 6 6 5 7 5 2 4 4 4 8 9 8 5 3 2 2 5 7 7 5 6 7 11 13 11 11 13 12 12 13 13 12 14 19 19 10 5 8 3 11 8 3 6 7 10 12 12 14 15 15 13 11 10 10 13 14 15 17 15 13 13 12 9 10 11 12 14 14 13 13 14 15 15 13 12 12 13 12 12 16 17 12 9
4 2 2 3 2 3 3 4 8 6 2 2 3 3 7 10 8 7 4 4 6 5 3 3 4 6 10 11 10 11 14 15 12 12 13 13 13 15 16 11 4 4 6 1 9 6 4 6 6 9 12 13 14 17 18 15 14 13 12 13 14 15 18 19 18 18 14 12 11 11 12 14 13 13 14 13 13 14 14 14 16 18 18 16 18 18 14 9
5 2 1 3 2 1 2 5 7 5 2 2 3 3 7 9 8 8 5 5 6 4 2 4 7 9 11 11 9 10 13 13 13 13 14 15 15 13 10 7 3 3 6 2 5 6 4 5 7 9 12 13 13 16 17 15 15 14 14 15 14 16 18 19 19 19 19 18 17 16 17 17 15 15 14 14 15 16 16 18 21 22 22 19 18 19 16 10
4 2 2 4 2 1 2 4 6 5 1 0 3 5 6 7 8 10 7 6 7 4 2 7 12 13 13 11 10 11 12 13 15 16 15 15 13 9 6 6 4 6 7 3 3 5 5 4 8 10 11 11 10 12 13 13 14 14 15 15 14 15 17 18 18 17 18 19 19 20 19 17 14 13 14 17 21 21 18 18 21 21 20 19 19 19 17 11
6 5 4 3 2 0 2 3 3 3 1 2 4 6 6 7 9 11 10 8 9 8 8 11 14 14 14 13 12 13 15 16 17 20 19 15 14 11 7 7 8 9 8 5 4 4 5 5 8 8 10 10 5 6 7 8 10 13 15 15 15 15 15 15 15 15 16 17 18 18 16 13 11 10 11 16 19 18 16 16 18 19 18 17 19 20 18 13
7 6 6 5 3 0 3 3 2 3 3 3 5 7 8 9 9 10 9 4 6 8 9 11 13 12 12 14 14 15 19 23 25 28 26 20 19 19 17 17 16 11 7 6 5 5 5 6 7 6 8 10 7 1 1 3 5 7 8 10 12 13 13 14 16 17 18 16 14 14 12 11 11 10 10 13 13 14 15 16 18 19 18 18 19 19 16 13
Wind_Direction
10 5 358 356 354 352 350 349 350 350 349 346 345 344 342 342 343 343 341 339 337 337 337 338 341 335 319 315 314 315 323 323 324 4 303 274 288 291 291 283 283 286 287 309 324 314 278 248 236 238 237 227 224 223 215 213 211 213 222 228 233 231 229 228 230 231 230 230 203 178 192 207 222 217 215 207 210 213 190 197 188 158 146 122 147 168 184 188
4 358 353 352 350 349 349 349 350 347 346 346 344 343 343 344 344 342 340 337 338 340 341 343 345 335 323 322 318 319 329 329 0 52 256 233 217 39 50 62 1 320 334 340 330 322 285 249 235 238 232 225 222 217 214 209 206 211 219 226 232 233 232 231 234 235 228 231 216 186 193 210 226 217 204 204 212 207 188 192 189 162 147 137 152 167 178 181
354 350 347 347 347 347 349 350 347 345 346 345 342 342 344 342 342 343 340 338 340 343 346 344 344 340 334 335 329 329 339 338 118 143 210 186 145 105 91 71 27 355 0 339 325 324 286 264 258 246 231 227 222 212 213 208 206 217 222 229 231 232 236 233 234 236 231 231 225 201 196 212 224 220 206 216 226 214 205 199 186 181 165 154 161 169 175 177
341 340 341 342 344 346 349 348 346 346 345 342 341 342 344 341 343 347 344 342 343 346 349 345 346 345 340 344 342 346 343 296 180 181 193 174 146 117 104 53 17 3 359 336 329 332 315 279 265 250 236 233 223 216 219 211 209 218 222 233 234 231 236 234 235 237 234 226 227 222 207 209 219 227 223 226 234 220 216 209 195 203 182 165 171 174 178 177
334 334 336 339 341 345 347 348 348 347 344 342 342 345 345 345 348 354 353 352 351 349 350 347 349 346 344 347 349 8 331 277 157 179 194 174 166 137 111 4 349 347 355 337 327 329 325 291 267 244 237 238 226 219 225 218 216 226 228 235 239 237 237 236 237 236 233 226 227 229 218 213 217 230 230 223 230 224 221 220 207 205 193 185 184 179 180 183
334 332 333 336 339 344 345 346 348 346 345 344 345 348 348 348 351 357 359 359 1 355 353 353 349 344 343 343 354 28 333 317 111 193 208 197 218 233 299 321 326 332 345 328 309 302 297 282 266 244 238 242 234 226 229 222 220 234 235 236 240 244 248 245 242 232 226 227 227 225 223 222 216 227 229 221 230 232 228 230 221 207 197 195 187 181 182 186
336 332 333 335 338 343 343 343 347 348 348 347 349 350 349 349 350 357 360 359 5 0 359 357 352 345 336 343 3 32 338 31 77 244 235 244 260 270 294 310 311 323 342 314 298 292 282 275 265 259 256 247 247 239 232 227 228 240 244 240 239 248 257 248 246 234 223 227 229 228 227 225 221 227 227 221 231 237 238 234 221 208 197 195 186 183 186 187
340 334 331 333 338 339 341 345 348 349 350 349 349 349 349 347 346 354 358 358 4 0 359 355 357 357 334 354 4 277 130 62 272 255 251 262 275 281 293 305 299 311 347 316 320 309 282 268 260 264 259 249 266 250 243 247 239 240 246 245 243 255 256 239 245 248 231 230 232 233 232 229 227 229 228 229 232 233 238 233 221 210 194 195 193 190 194 193
346 340 334 336 339 337 342 347 348 350 350 348 348 347 345 343 343 350 353 356 2 359 358 357 2 9 11 30 348 246 104 345 288 299 289 281 289 293 298 290 287 302 318 320 347 321 289 274 267 279 275 271 283 258 253 252 240 245 248 249 252 257 252 240 246 246 238 238 236 235 234 231 228 229 233 237 237 234 233 229 227 211 183 192 202 202 211 205
351 351 346 345 339 337 344 345 347 349 349 346 345 345 341 339 343 347 349 355 1 359 360 1 7 20 49 57 317 295 32 326 332 339 325 324 318 319 306 255 256 282 287 299 5 346 336 323 316 306 287 274 269 259 251 246 264 297 274 264 263 258 254 250 254 243 236 239 235 234 237 234 227 227 232 233 235 236 232 225 226 215 188 199 207 206 217 215
354 355 353 350 340 338 343 343 346 347 347 346 343 341 337 338 344 346 349 356 0 3 6 8 16 44 73 70 16 32 41 24 16 345 335 334 322 321 287 253 244 251 272 266 227 58 49 358 342 298 271 270 268 259 251 254 279 292 284 279 265 256 253 248 251 242 236 234 231 235 243 240 231 229 229 226 225 227 231 225 222 223 211 209 209 210 218 220
355 352 350 349 341 341 342 342 345 346 347 345 340 338 335 338 345 346 351 359 2 7 13 18 34 66 79 72 48 59 61 40 15 344 344 342 329 314 284 258 248 245 258 263 236 199 187 340 338 289 287 309 277 259 264 273 282 279 275 277 264 257 249 239 238 234 235 233 228 232 243 240 231 231 231 226 221 220 228 229 226 225 221 219 214 218 225 220
354 352 353 348 344 345 343 342 344 345 347 343 339 335 335 341 345 348 358 3 6 12 17 23 44 66 70 68 55 70 69 36 5 348 348 349 349 335 311 278 260 247 246 256 249 230 239 277 297 289 303 295 270 282 305 285 275 272 261 260 260 256 243 231 229 228 231 230 222 223 235 233 226 230 230 226 222 220 222 225 231 228 220 225 217 217 229 222
354 355 354 347 348 348 343 343 343 346 348 342 337 333 336 342 345 356 3 5 11 17 19 21 40 61 63 61 36 30 35 23 6 355 348 357 4 348 345 327 295 266 245 242 248 243 252 274 278 276 272 262 273 293 288 265 257 266 261 251 245 250 244 228 219 217 221 220 214 218 233 233 226 227 227 223 220 221 218 217 226 226 216 221 218 218 229 225
355 355 353 351 351 349 345 343 342 347 349 343 339 334 337 343 355 6 6 11 14 16 18 18 33 53 57 57 22 10 9 9 360 346 345 19 24 6 357 346 337 322 262 233 235 240 253 268 267 270 255 233 266 276 267 252 242 247 255 249 234 238 246 234 216 210 216 214 211 218 236 237 231 229 225 222 218 214 216 216 219 222 214 213 215 217 226 227
357 355 356 355 352 349 346 343 343 348 350 347 342 337 339 351 14 13 11 13 7 12 16 13 31 59 33 41 24 16 11 357 338 332 337 359 8 2 345 334 340 354 323 223 228 233 243 255 258 269 263 240 247 252 254 251 236 229 238 251 246 238 238 227 207 207 215 215 211 216 231 238 233 234 228 222 216 208 214 220 219 223 218 212 211 210 222 227
358 358 359 355 352 349 345 344 345 349 353 352 346 343 347 2 35 22 16 15 6 14 18 11 24 132 56 34 22 12 3 348 332 323 315 303 319 343 340 326 310 330 343 195 213 216 223 240 247 253 247 241 245 246 251 246 237 228 223 239 250 249 250 228 194 198 213 215 215 217 229 239 235 234 231 227 220 208 213 221 219 223 221 217 218 216 222 224
359 360 358 353 352 348 346 347 345 350 357 356 354 354 359 5 36 19 14 15 4 354 33 17 5 197 96 32 9 351 347 344 333 304 276 282 281 290 323 310 297 293 252 200 184 200 214 227 238 249 238 230 234 232 238 244 255 261 237 231 239 237 244 248 230 185 209 219 221 220 226 234 235 235 233 232 228 214 212 220 219 221 220 216 222 225 227 227
1 358 355 352 352 351 350 349 347 353 358 3 6 7 16 8 332 29 18 8 359 346 27 11 355 320 7 359 346 334 336 341 334 286 237 281 280 286 297 286 283 274 260 225 167 192 227 229 231 248 246 233 235 237 248 260 275 291 279 265 261 244 235 245 245 193 214 236 229 227 232 231 229 232 233 234 234 222 215 220 219 218 219 216 221 224 226 228
0 357 354 351 353 355 354 352 351 355 359 9 14 22 27 0 307 66 7 347 350 359 335 335 332 303 306 324 323 329 339 342 338 271 239 273 282 282 267 257 263 244 249 287 107 170 256 256 239 246 270 277 280 273 271 277 274 270 272 265 261 259 250 248 248 235 241 258 241 234 240 239 230 228 227 226 230 226 221 222 221 220 219 217 219 222 224 227
359 359 354 352 356 357 356 355 354 359 4 11 19 46 50 10 3 356 342 318 282 310 286 281 287 275 289 311 311 327 339 332 321 285 267 276 274 272 242 233 264 240 172 311 282 239 240 260 254 252 280 280 273 271 265 265 255 247 253 255 248 248 249 244 245 245 242 251 252 244 243 243 237 232 229 226 224 225 224 224 225 225 223 219 219 221 224 225
358 359 355 355 359 358 359 359 357 2 9 15 27 54 58 29 24 349 331 300 290 292 278 281 283 279 293 302 309 331 329 313 320 327 300 277 255 263 268 257 266 269 328 256 259 250 239 255 272 287 276 258 254 258 256 252 249 244 240 246 247 244 247 243 236 237 240 245 248 248 247 243 238 237 237 234 231 229 226 227 230 231 229 224 219 217 221 223
358 356 357 359 359 360 2 3 2 6 14 22 33 45 41 21 4 354 324 290 284 276 279 281 283 293 300 301 316 323 314 313 329 338 335 266 248 262 281 269 267 282 278 260 266 272 272 285 67 66 280 252 244 241 250 253 248 244 239 242 244 239 245 244 226 221 234 247 252 256 256 249 242 237 237 238 238 236 233 234 236 236 234 229 223 218 220 222
358 353 357 0 0 3 4 6 8 9 15 23 29 25 18 9 360 359 315 285 266 260 269 279 300 302 312 315 313 311 310 314 311 319 345 275 260 264 264 273 277 270 262 266 279 273 277 289 222 221 252 248 251 243 241 251 250 243 240 245 250 245 245 249 250 247 252 251 250 257 262 253 241 236 235 234 234 235 235 237 238 236 234 233 231 226 223 223
356 352 357 1 4 4 5 11 9 9 16 23 17 7 6 8 357 350 312 267 216 225 248 293 345 328 329 323 312 307 305 305 294 301 307 262 256 272 268 267 261 271 285 279 283 272 271 278 242 245 254 245 252 250 239 244 255 251 238 237 249 255 253 251 263 270 261 249 231 230 246 250 234 234 235 230 228 228 228 232 235 234 231 230 231 230 227 225
354 353 355 2 7 7 13 15 5 13 25 7 352 353 358 356 343 338 308 244 168 73 316 355 15 346 345 342 324 306 290 298 332 312 304 237 236 271 275 247 221 269 309 291 285 274 261 267 242 250 262 251 248 249 241 235 246 258 242 231 243 252 251 247 251 248 246 256 231 215 234 250 236 232 230 226 226 225 222 225 229 230 230 227 225 226 226 225
355 352 351 3 7 11 25 15 0 18 25 340 340 347 345 338 334 326 264 230 124 24 336 16 12 340 345 342 332 319 297 328 326 288 62 202 219 242 259 265 236 260 291 281 286 281 221 246 241 245 258 253 248 246 235 223 237 260 276 245 247 245 243 238 241 242 243 260 249 217 232 252 248 234 224 222 224 224 221 221 223 226 228 228 225 223 223 224
356 354 350 2 6 13 20 11 9 17 358 345 347 342 334 331 337 263 255 241 67 351 343 20 351 344 342 331 337 347 328 320 313 151 67 282 240 234 247 268 279 279 287 273 279 295 176 244 252 251 253 247 251 257 238 220 238 256 48 286 260 251 250 243 239 243 242 251 247 222 224 241 249 238 228 224 224 225 223 221 222 222 225 227 227 225 224 225
357 355 349 357 6 10 7 5 11 2 347 353 349 336 333 341 125 229 252 5 30 343 21 358 337 340 334 332 348 354 328 312 315 327 311 276 248 248 260 281 286 281 277 263 269 280 268 266 269 265 260 256 261 263 244 226 244 258 253 255 254 251 253 246 241 246 241 242 244 230 222 232 245 235 226 226 226 227 226 225 226 224 225 227 227 228 228 226
355 355 346 345 1 3 2 0 355 348 347 351 346 339 343 57 214 250 284 26 349 351 357 332 338 335 331 337 351 348 338 312 301 305 297 272 231 236 264 273 266 271 269 256 263 274 272 269 267 260 259 263 268 264 246 236 247 257 243 242 243 237 238 237 236 243 242 239 239 236 231 235 247 238 225 225 225 227 230 229 228 227 228 228 227 228 228 226
351 352 342 325 347 354 3 356 337 339 346 346 347 350 287 203 250 292 20 16 296 348 349 330 339 338 335 335 332 346 340 317 318 315 308 305 260 256 274 252 230 258 272 259 262 274 272 263 249 245 249 254 260 258 247 238 239 244 240 241 243 230 225 231 229 229 240 243 235 232 233 236 243 240 234 235 228 226 232 231 227 227 227 227 227 228 229 227
348 349 342 323 331 342 354 343 328 333 340 345 351 343 230 249 279 0 10 322 277 355 354 338 336 334 330 320 324 348 334 319 351 337 333 331 310 303 298 281 276 284 286 303 306 297 283 268 257 251 241 238 245 250 244 233 228 232 235 237 239 231 221 224 225 225 233 240 239 234 232 236 244 245 248 250 242 233 236 237 235 234 230 230 229 228 229 229
346 344 343 328 324 336 342 337 332 331 337 347 348 247 250 303 16 24 343 338 350 348 336 327 323 324 322 316 336 349 329 327 353 338 339 329 315 318 297 275 279 281 289 314 315 310 292 273 252 253 238 223 233 245 243 231 221 222 226 229 232 231 224 222 225 232 234 235 237 235 233 243 251 243 240 245 247 245 247 247 247 248 246 241 236 231 228 226
348 343 347 336 330 336 337 338 338 330 337 349 312 249 283 343 27 357 328 348 345 331 328 325 320 319 323 330 343 348 337 336 343 338 337 326 319 330 317 272 232 268 286 296 300 305 299 297 192 222 260 191 223 242 250 252 241 230 229 231 235 237 234 231 229 232 239 241 230 223 222 233 244 239 228 237 241 241 243 244 245 246 248 247 244 242 238 230
0 358 359 348 341 339 339 341 339 332 340 337 275 272 349 6 23 352 339 343 331 328 327 319 314 314 332 356 343 2 48 344 334 336 332 330 333 331 328 348 331 288 290 291 306 295 287 299 182 208 254 201 235 250 250 251 253 240 232 231 233 238 241 244 251 259 272 269 240 223 227 232 248 272 276 257 248 242 240 239 237 238 240 241 241 242 240 233
24 43 15 359 350 343 344 342 338 340 339 309 277 348 23 7 358 349 351 343 325 327 326 321 325 324 339 356 341 360 52 329 326 333 328 330 332 330 326 330 322 295 285 292 311 300 282 298 58 214 233 232 247 261 243 236 249 243 227 231 232 238 250 252 255 267 284 275 252 243 250 243 253 270 259 245 244 243 243 239 234 235 237 239 239 238 236 233
43 81 17 5 358 350 350 346 346 349 325 292 309 27 21 8 2 344 345 336 320 322 324 326 357 349 335 339 334 344 348 330 333 338 330 330 333 341 326 319 317 293 293 298 298 309 295 290 287 263 261 253 246 257 245 231 245 253 234 246 241 233 251 255 247 248 246 248 249 247 251 248 249 258 241 228 231 231 236 237 233 233 234 237 239 238 236 234
32 136 9 4 1 358 359 359 0 356 289 288 16 78 348 0 15 345 335 328 316 316 317 314 344 359 333 329 329 336 334 330 338 338 330 329 340 351 326 325 348 337 333 322 291 319 309 286 289 260 264 290 240 241 245 224 230 246 259 287 259 230 233 231 228 236 235 239 244 242 246 248 245 247 241 232 231 228 232 234 232 232 230 232 236 236 235 234
12 193 353 359 1 4 12 17 8 346 274 332 30 62 352 340 352 341 332 329 314 305 311 308 304 313 322 322 322 329 330 328 330 331 334 332 319 333 335 345 358 347 352 328 261 277 256 268 287 148 165 280 257 228 243 220 210 233 251 256 245 245 257 242 231 232 233 239 246 244 245 243 240 245 250 254 258 258 253 244 238 236 233 233 235 236 236 234
2 204 346 357 1 9 22 33 21 349 346 29 26 14 0 326 327 327 327 330 307 283 302 304 295 300 313 317 316 322 327 323 322 321 318 305 298 312 340 12 335 322 320 284 242 235 223 238 269 220 164 267 265 232 249 250 207 213 232 235 232 231 240 252 250 239 238 243 246 248 250 247 240 237 244 252 252 250 253 250 244 242 238 236 236 237 238 236
0 234 351 356 2 12 20 36 34 23 45 56 37 5 358 329 320 319 325 328 294 272 287 291 294 299 305 309 315 324 323 317 318 320 314 307 301 306 350 325 312 313 311 288 250 217 214 231 259 271 266 265 265 259 261 261 242 224 222 226 234 232 227 234 238 230 236 246 247 251 255 253 256 252 251 260 254 243 250 256 253 247 245 246 245 241 240 239
8 344 356 358 6 12 4 63 47 38 50 27 353 325 331 323 312 316 329 331 300 284 278 278 295 304 304 309 315 320 320 312 308 308 313 311 291 231 226 268 294 298 291 287 274 232 211 244 256 263 273 271 274 275 259 244 242 243 240 235 233 234 233 232 232 228 232 241 246 254 260 260 262 266 276 282 275 266 266 268 262 249 245 257 263 250 241 237
10 352 355 3 15 19 8 93 45 38 50 21 333 280 310 315 312 320 325 325 321 313 285 285 304 307 309 318 315 314 319 311 290 286 306 312 305 283 263 269 289 295 281 279 282 222 196 225 255 262 278 274 268 264 243 230 232 235 236 235 232 234 236 238 249 258 251 246 246 248 253 255 253 256 266 274 274 272 262 251 247 251 248 255 268 259 242 239
343 330 351 4 20 33 39 22 12 11 17 4 335 331 327 302 317 327 320 320 328 315 288 292 309 312 311 312 307 308 316 309 283 295 312 315 324 323 273 257 278 289 268 260 248 173 195 232 243 273 296 292 263 235 208 214 223 232 234 230 229 233 239 244 253 261 262 257 258 255 252 257 264 264 264 265 271 277 268 249 243 253 256 257 271 281 267 255
328 324 356 3 20 43 66 49 14 0 359 353 340 348 346 328 341 332 309 304 303 294 291 295 305 307 304 305 305 305 307 300 288 303 312 315 322 323 307 294 293 286 280 269 224 162 231 253 211 268 295 305 305 310 305 236 227 234 234 232 230 227 229 237 244 247 250 253 256 256 258 266 271 267 268 270 272 277 276 259 251 257 261 271 291 296 294 281
337 350 7 356 20 49 76 62 25 6 357 351 340 348 348 343 349 341 311 296 276 293 294 288 297 301 302 316 318 311 310 310 300 297 307 317 320 322 326 323 310 303 307 280 202 165 246 252 226 239 253 277 293 298 304 295 270 250 235 230 230 226 225 229 233 236 239 247 251 249 256 267 270 266 268 271 269 271 274 266 259 260 265 286 299 296 296 292
351 2 3 345 4 46 75 60 24 11 348 335 337 350 343 340 346 348 326 284 295 312 294 276 279 294 316 332 324 311 313 317 312 306 312 319 319 321 325 322 317 332 335 263 174 173 258 261 234 227 230 247 269 281 288 284 269 262 251 236 229 225 224 225 231 236 238 246 251 247 251 261 269 272 273 276 271 266 269 270 272 281 288 293 290 287 292 293
22 96 16 349 344 14 30 18 360 349 317 305 320 339 335 341 355 352 331 303 298 299 283 256 250 277 314 328 316 304 313 318 318 319 323 324 323 326 328 330 353 15 352 179 174 191 265 275 251 233 236 242 250 264 275 278 270 260 254 247 236 227 224 225 232 238 239 246 256 261 265 267 272 275 273 273 265 260 274 287 293 299 299 291 281 281 290 294
25 80 342 338 340 351 333 322 315 304 290 298 308 344 337 334 347 347 331 308 300 287 233 270 285 301 318 319 301 299 313 318 317 317 320 321 320 322 324 327 7 24 355 344 212 231 263 280 279 271 264 259 250 253 263 270 269 258 248 247 241 233 230 230 235 239 241 248 256 265 272 272 272 272 270 269 267 271 288 296 296 297 294 287 282 281 288 296
34 25 333 301 285 243 275 297 297 284 272 340 322 353 340 324 339 340 321 295 289 293 288 294 306 317 315 307 294 288 296 306 305 301 306 313 311 313 320 312 314 328 330 328 240 248 238 265 299 294 283 277 253 243 256 263 259 255 251 247 242 238 235 234 238 241 242 249 254 259 265 266 265 267 268 268 271 276 284 290 292 292 290 289 287 280 281 288
28 24 13 300 277 290 284 293 295 293 358 28 342 347 337 326 340 334 315 284 260 271 301 310 315 318 310 300 290 282 290 302 299 290 289 286 276 272 272 272 290 314 314 298 284 262 234 266 298 293 294 301 270 224 256 271 255 250 251 248 241 237 235 236 239 240 243 250 255 255 257 262 268 273 267 263 267 272 277 284 286 284 282 284 282 277 282 287
11 17 15 325 272 77 325 302 283 313 4 19 338 332 324 317 326 325 318 292 242 263 292 306 310 313 307 299 298 302 307 306 297 289 285 275 262 259 256 256 266 277 285 295 302 279 268 289 299 294 296 304 307 279 248 277 258 246 257 263 251 243 245 248 245 243 244 247 253 257 260 272 283 286 278 274 276 280 280 278 278 279 280 281 278 282 296 303